When you browse on this site, cookies collect data to enhance your experience and personalize the content and advertising you see.
Visit our Privacy Policy to learn more. By continuing to use the site, you agree to this use of cookies and data.
  • In Romania
  • List of Countries
  • For 7 days
  • Water Temperature
  • Weather Map
  • Weather Widgets
  • user-avatar
    Login

    Hourly Weather Imphal

    Today, 31 March, Tuesday

    Time Temperature Precipitation Wind Pressure Humidity
    00:00 +18°C° 0 mm 1 mps 691 mmHg 36%
    01:00 +18°C° 0 mm 1 mps 691 mmHg 39%
    02:00 +16°C° 0 mm 1 mps 690 mmHg 41%
    03:00 +16°C° 0 mm 1 mps 690 mmHg 43%
    04:00 +15°C° 0 mm 1 mps 690 mmHg 45%
    05:00 +15°C° 0 mm 1 mps 690 mmHg 47%
    06:00 +14°C° 0 mm 0 mps 691 mmHg 50%
    07:00 +19°C° 0 mm 0 mps 692 mmHg 41%
    08:00 +23°C° 0 mm 0 mps 693 mmHg 33%
    09:00 +27°C° 0 mm 0 mps 694 mmHg 24%
    10:00 +31°C° 0 mm 1 mps 694 mmHg 21%
    11:00 +33°C° 0 mm 1 mps 693 mmHg 18%
    12:00 +35°C° 0 mm 2 mps 693 mmHg 15%
    13:00 +35°C° 0 mm 2 mps 692 mmHg 14%
    14:00 +35°C° 0 mm 3 mps 692 mmHg 12%
    15:00 +35°C° 0 mm 3 mps 691 mmHg 11%
    16:00 +33°C° 0 mm 3 mps 690 mmHg 14%
    17:00 +29°C° 0 mm 2 mps 690 mmHg 17%
    18:00 +26°C° 0 mm 2 mps 689 mmHg 20%
    19:00 +24°C° 0 mm 2 mps 690 mmHg 22%
    20:00 +23°C° 0 mm 1 mps 690 mmHg 24%
    21:00 +21°C° 0 mm 1 mps 691 mmHg 27%
    22:00 +20°C° 0 mm 1 mps 690 mmHg 30%
    23:00 +19°C° 0 mm 1 mps 690 mmHg 32%

    Tomorrow, 1 April, Wednesday

    Time Temperature Precipitation Wind Pressure Humidity
    00:00 +18°C° 0 mm 1 mps 690 mmHg 35%
    01:00 +18°C° 0 mm 1 mps 690 mmHg 37%
    02:00 +16°C° 0 mm 1 mps 689 mmHg 39%
    03:00 +16°C° 0 mm 1 mps 689 mmHg 41%
    04:00 +16°C° 0 mm 1 mps 689 mmHg 43%
    05:00 +15°C° 0 mm 1 mps 689 mmHg 44%
    06:00 +15°C° 0 mm 1 mps 690 mmHg 45%
    07:00 +21°C° 0 mm 1 mps 691 mmHg 37%
    08:00 +25°C° 0 mm 1 mps 692 mmHg 28%
    09:00 +30°C° 0 mm 1 mps 693 mmHg 20%
    10:00 +32°C° 0 mm 1 mps 693 mmHg 17%
    11:00 +35°C° 0 mm 2 mps 692 mmHg 14%
    12:00 +36°C° 0 mm 2 mps 692 mmHg 11%
    13:00 +36°C° 0 mm 3 mps 691 mmHg 10%
    14:00 +36°C° 0 mm 3 mps 690 mmHg 10%
    15:00 +36°C° 0 mm 4 mps 689 mmHg 9%
    16:00 +33°C° 0 mm 3 mps 689 mmHg 12%
    17:00 +30°C° 0 mm 3 mps 688 mmHg 15%
    18:00 +27°C° 0 mm 2 mps 688 mmHg 18%
    19:00 +25°C° 0 mm 2 mps 689 mmHg 20%
    20:00 +24°C° 0 mm 1 mps 689 mmHg 23%
    21:00 +22°C° 0 mm 1 mps 690 mmHg 25%
    22:00 +21°C° 0 mm 1 mps 690 mmHg 27%
    23:00 +21°C° 0 mm 1 mps 689 mmHg 28%

    Day after tomorrow, 2 April, Thursday

    Time Temperature Precipitation Wind Pressure Humidity
    00:00 +20°C° 0 mm 1 mps 689 mmHg 30%
    01:00 +20°C° 0 mm 1 mps 689 mmHg 32%
    02:00 +19°C° 0 mm 1 mps 689 mmHg 34%
    03:00 +18°C° 0 mm 1 mps 688 mmHg 35%
    04:00 +18°C° 0 mm 1 mps 688 mmHg 37%
    05:00 +18°C° 0 mm 1 mps 689 mmHg 38%
    06:00 +16°C° 0 mm 0 mps 689 mmHg 39%
    07:00 +22°C° 0 mm 1 mps 690 mmHg 34%
    08:00 +26°C° 0 mm 1 mps 691 mmHg 29%
    09:00 +30°C° 0 mm 1 mps 692 mmHg 24%
    10:00 +33°C° 0 mm 3 mps 692 mmHg 21%
    11:00 +34°C° 0 mm 4 mps 692 mmHg 19%
    12:00 +35°C° 0 mm 5 mps 691 mmHg 17%
    13:00 +35°C° 0 mm 5 mps 691 mmHg 18%
    14:00 +35°C° 0 mm 5 mps 690 mmHg 19%
    15:00 +35°C° 0 mm 5 mps 689 mmHg 20%
    16:00 +30°C° 0.1 mm 4 mps 689 mmHg 33%
    17:00 +27°C° 0.1 mm 3 mps 689 mmHg 46%
    18:00 +24°C° 0.1 mm 2 mps 689 mmHg 59%
    19:00 +23°C° 0 mm 2 mps 689 mmHg 62%
    20:00 +21°C° 0 mm 1 mps 690 mmHg 66%
    21:00 +20°C° 0 mm 1 mps 690 mmHg 69%
    22:00 +20°C° 0 mm 1 mps 690 mmHg 70%
    23:00 +19°C° 0 mm 1 mps 690 mmHg 70%

    3 April, Friday

    Time Temperature Precipitation Wind Pressure Humidity
    00:00 +19°C° 0 mm 1 mps 690 mmHg 71%
    01:00 +19°C° 0 mm 1 mps 690 mmHg 72%
    02:00 +18°C° 0 mm 1 mps 689 mmHg 72%
    03:00 +16°C° 0 mm 0 mps 689 mmHg 73%
    04:00 +16°C° 0 mm 0 mps 689 mmHg 73%
    05:00 +16°C° 0 mm 0 mps 690 mmHg 73%
    06:00 +16°C° 0 mm 0 mps 690 mmHg 73%
    07:00 +22°C° 0 mm 1 mps 691 mmHg 59%
    08:00 +26°C° 0 mm 1 mps 692 mmHg 46%
    09:00 +30°C° 0 mm 1 mps 694 mmHg 32%
    10:00 +33°C° 0 mm 3 mps 693 mmHg 28%
    11:00 +34°C° 0 mm 4 mps 693 mmHg 24%
    12:00 +36°C° 0 mm 5 mps 693 mmHg 20%
    13:00 +36°C° 0 mm 5 mps 692 mmHg 20%
    14:00 +35°C° 0 mm 5 mps 691 mmHg 20%
    15:00 +35°C° 0 mm 5 mps 690 mmHg 21%
    16:00 +33°C° 0 mm 4 mps 690 mmHg 27%
    17:00 +30°C° 0 mm 3 mps 689 mmHg 33%
    18:00 +28°C° 0 mm 2 mps 689 mmHg 39%
    19:00 +25°C° 0.1 mm 2 mps 690 mmHg 48%
    20:00 +23°C° 0.1 mm 1 mps 691 mmHg 57%
    21:00 +21°C° 0.1 mm 1 mps 691 mmHg 66%
    22:00 +20°C° 0 mm 1 mps 691 mmHg 71%
    23:00 +19°C° 0 mm 1 mps 691 mmHg 76%

    4 April, Saturday

    Time Temperature Precipitation Wind Pressure Humidity
    00:00 +18°C° 0 mm 1 mps 690 mmHg 80%
    01:00 +16°C° 0 mm 0 mps 690 mmHg 80%
    02:00 +16°C° 0 mm 0 mps 690 mmHg 80%
    03:00 +16°C° 0 mm 0 mps 690 mmHg 80%
    04:00 +16°C° 0 mm 0 mps 690 mmHg 80%
    05:00 +16°C° 0 mm 0 mps 690 mmHg 79%
    06:00 +15°C° 0 mm 0 mps 691 mmHg 79%
    07:00 +21°C° 0 mm 1 mps 692 mmHg 65%
    08:00 +26°C° 0 mm 1 mps 693 mmHg 50%
    09:00 +30°C° 0 mm 1 mps 694 mmHg 36%
    10:00 +31°C° 0 mm 3 mps 694 mmHg 30%
    11:00 +34°C° 0 mm 4 mps 693 mmHg 23%
    12:00 +36°C° 0 mm 5 mps 693 mmHg 16%
    13:00 +35°C° 0 mm 6 mps 692 mmHg 18%
    14:00 +35°C° 0 mm 6 mps 691 mmHg 19%
    15:00 +35°C° 0 mm 6 mps 691 mmHg 20%
    16:00 +33°C° 0 mm 5 mps 690 mmHg 24%
    17:00 +30°C° 0 mm 3 mps 690 mmHg 29%
    18:00 +28°C° 0 mm 2 mps 690 mmHg 34%
    19:00 +26°C° 0 mm 2 mps 690 mmHg 41%
    20:00 +24°C° 0 mm 1 mps 691 mmHg 48%
    21:00 +22°C° 0 mm 1 mps 691 mmHg 55%
    22:00 +21°C° 0 mm 1 mps 691 mmHg 59%
    23:00 +20°C° 0 mm 1 mps 691 mmHg 62%

    5 April, Sunday

    Time Temperature Precipitation Wind Pressure Humidity
    00:00 +19°C° 0 mm 1 mps 691 mmHg 65%
    01:00 +19°C° 0 mm 1 mps 691 mmHg 66%
    02:00 +19°C° 0 mm 1 mps 690 mmHg 68%
    03:00 +18°C° 0 mm 1 mps 690 mmHg 69%
    04:00 +16°C° 0 mm 0 mps 690 mmHg 70%
    05:00 +16°C° 0 mm 0 mps 691 mmHg 71%
    06:00 +16°C° 0 mm 0 mps 691 mmHg 71%
    07:00 +22°C° 0 mm 1 mps 692 mmHg 60%
    08:00 +26°C° 0 mm 1 mps 693 mmHg 48%
    09:00 +30°C° 0 mm 1 mps 694 mmHg 36%
    10:00 +33°C° 0 mm 3 mps 694 mmHg 30%
    11:00 +34°C° 0 mm 4 mps 693 mmHg 23%
    12:00 +36°C° 0 mm 5 mps 693 mmHg 17%
    13:00 +36°C° 0 mm 6 mps 692 mmHg 18%
    14:00 +35°C° 0 mm 6 mps 691 mmHg 19%
    15:00 +35°C° 0 mm 6 mps 690 mmHg 20%
    16:00 +30°C° 0.6 mm 5 mps 690 mmHg 34%
    17:00 +26°C° 0.6 mm 4 mps 689 mmHg 49%
    18:00 +22°C° 0.6 mm 4 mps 689 mmHg 63%
    19:00 +20°C° 0.7 mm 3 mps 689 mmHg 70%
    20:00 +18°C° 0.7 mm 2 mps 690 mmHg 77%
    21:00 +16°C° 0.7 mm 1 mps 690 mmHg 85%
    22:00 +16°C° 0.1 mm 1 mps 690 mmHg 85%
    23:00 +16°C° 0.1 mm 1 mps 690 mmHg 85%
    Show more